Regional Weather Roundup
Issued by NWS Boston, MA

Home | Current Version | Previous Version | Text Only | Print | Product List | Glossary On
Versions: 1 2 3 4 5 6 7 8 9 10 11 12 13 14 15 16 17 18 19 20 21 22 23 24 25 26 27 28 29 30 31 32 33 34 35 36 37 38 39 40 41 42 43 44 45 46 47 48 49 50
000
ASUS41 KBOX 230910
RWRBOX

REGIONAL WEATHER ROUNDUP
NATIONAL WEATHER SERVICE BOSTON/NORTON MA
400 AM EST SAT FEB 23 2019

NOTE:  "FAIR" INDICATES FEW OR NO CLOUDS BELOW 12,000 FEET WITH NO
SIGNIFICANT WEATHER AND/OR OBSTRUCTIONS TO VISIBILITY.

MAZALL-231000-
EASTERN MASSACHUSETTS

CITY           SKY/WX    TMP DP  RH WIND       PRES   REMARKS
BOSTON         MOCLDY    32  18  56 NW7       30.47S WCI  26
BEVERLY        FAIR      27  16  63 NW5       30.45F WCI  22
LAWRENCE       FAIR      26  16  65 NW3       30.48S
BEDFORD        FAIR      23  17  78 CALM      30.46S
BLUE HILL        N/A     26  17  68 NW8       30.42S WCI  18
NORWOOD        FAIR      24  18  77 CALM      30.47S
MARSHFIELD     FAIR      32  21  64 VRB3      30.45F
PLYMOUTH       FAIR      28  19  69 NW3       30.45S
TAUNTON        FAIR      23  19  85 CALM      30.46S
NEW BEDFORD    FAIR      28  22  78 CALM      30.45S
$$

MAZALL-231000-
CAPE COD AND THE ISLANDS

CITY           SKY/WX    TMP DP  RH WIND       PRES   REMARKS
FALMOUTH       FAIR      28  21  74 N5        30.44S WCI  23
HYANNIS        FAIR      33  24  69 N5        30.43S WCI  29
CHATHAM        FAIR      32  25  75 CALM      30.44F
PROVINCETOWN   MOCLDY    35  27  72 N5        30.45S WCI  31
NANTUCKET      FAIR      33  25  72 N8        30.44F WCI  26
MARTHAS VNYRD  FAIR      31  23  72 N3        30.45S
$$

MAZALL-231000-
CENTRAL AND WESTERN MASSACHUSETTS

CITY           SKY/WX    TMP DP  RH WIND       PRES   REMARKS
WORCESTER      FAIR      24  17  74 CALM      30.41S
FITCHBURG      FAIR      21  17  84 CALM      30.46S
ORANGE         FAIR      20  16  84 CALM      30.46S
SPRINGFIELD    FAIR      20  17  87 CALM      30.45F
WESTFIELD      FAIR      23  19  85 CALM      30.46F
NORTH ADAMS    FAIR      17  15  92 CALM      30.47S
PITTSFIELD     FAIR      20  13  74 W3        30.41S
$$

RIZALL-231000-
RHODE ISLAND

CITY           SKY/WX    TMP DP  RH WIND       PRES   REMARKS
PROVIDENCE     FAIR      30  21  69 N3        30.47S
NEWPORT        FAIR      30  22  72 N7        30.45S WCI  23
BLOCK ISLAND   FAIR      33  23  66 N9        30.46  WCI  25
SMITHFIELD     FAIR      26  20  77 NE5       30.45S WCI  20
WESTERLY       FAIR      33  23  66 NE3       30.47R
$$

CTZALL-231000-
CONNECTICUT

CITY           SKY/WX    TMP DP  RH WIND       PRES   REMARKS
BRADLEY INTL   MOCLDY    26  18  71 CALM      30.46F
HARTFORD       FAIR      28  21  75 CALM      30.48S
BRIDGEPORT     FAIR      32  21  64 N7        30.47F WCI  26
DANBURY        FAIR      30  19  63 NE5       30.46F WCI  25
GROTON         FAIR      31  20  63 NE3       30.47R
NEW HAVEN      FAIR      33  21  61 N6        30.47S WCI  28
CHESTER        FAIR      30  19  64 N6        30.45S WCI  24
MERIDEN        FAIR      27  21  78 NW5       30.48S WCI  22
WILLIMANTIC    FAIR      25  21  85 CALM      30.47F
OXFORD         FAIR      28  20  71 NE6       30.45S WCI  22
$$

MEZ002-015-021-024-NHZ003-005-008-011-012-014-VTZ005-008-231000-
NORTHERN NEW ENGLAND

CITY           SKY/WX    TMP DP  RH WIND       PRES   REMARKS
PORTLAND ME    FAIR      20  16  84 MISG      30.46R
BANGOR ME      FAIR       6   3  87 CALM      30.41S
CONCORD NH     FAIR      20  15  81 CALM      30.46R
MANCHESTER NH  MOCLDY    27  16  63 NW3       30.45S
NASHUA NH      FAIR      23  19  85 CALM      30.47S
PORTSMOUTH NH  MOCLDY    24  17  74 W5        30.44S WCI  18
JAFFREY NH     FAIR      21  17  84 CALM      30.41F
KEENE NH       FAIR      17  16  95 E3        30.47F
BURLINGTON VT  FAIR      15  11  83 CALM      30.47F
MT. WASHINGTON PTCLDY    14   1  57 NW41        N/A  WCI -10
$$

NYZ052-076-231000-
EASTERN NEW YORK

CITY           SKY/WX    TMP DP  RH WIND       PRES   REMARKS
ALBANY         MOCLDY    22  15  75 CALM      30.50S
NEW YORK CITY  MOCLDY    34  20  56 NE8       30.47F WCI  27
$$

ANZALL-231000-
MARINE OBSERVATIONS

STATION/POSITION TIME  TEMP    WIND        PRES    VSBY  WAVE
                       AIR SEA DIR/SP/G                  HT/PER
                 (UTC) (F)     (DEG/KT/KT) (MB)    (MI)  (FT/S)
BOSTON BUOY      0850   33 39  340/ 10/ 12 1030.9R         2/ 6
BUZZARDS BAY     0800   34     360/ 11/ 12 1031.6F
NANTUCKET SOUND  0850   35 35  350/ 10/ 12 1030.9S         1
MASS BAY-STELLWA 0804   33 37  340/ 10/ 12 1030.4F  1 7/8  2/ 6
ISLE OF SHOALS   0900   32     330/  5/  5 1031.0R
S OF BLOCK IS    0830      42                N/A           3/ 3
$$

......................KEY.........................
  SKY/WX - SKY CONDITION/PRESENT WEATHER
  TMP    - TEMPERATURE IN FAHRENHEIT
  DWPT   - DEWPOINT IN FAHRENHEIT
  RH     - RELATIVE HUMIDITY IN PERCENT
  WIND   - DIRECTION AND SPEED IN MPH
  PRES   - MEAN SEA LEVEL PRESSURE IN INCHES OF HG
  WCI    - WIND CHILL INDEX
  VSB    - VISIBILITY IN MILES
  HX     - HEAT INDEX
  TC     - TEMPERATURE IN CELSIUS
  VRB    - VARIABLE WIND DIRECTION
  N/A    - NOT AVAILABLE




USA.gov is the U.S. government's official web portal to all federal, state and local government web resources and services.